Temperature
19 20 21 21 22 22 20 19 17 16 15 15 14 14 14 14 14 14 15 15 15 16 16 17 18 18 18 18 18 17 16 15 15 14 13 13 12 12 11 11 11 11 11 11
20 21 21 21 20 20 18 17 16 15 14 14 14 14 13 13 13 13 13 13 13 14 15 15 15 16 17 17 17 17 16 16 15 14 13 13 12 12 11 11 11 11 11 11
18 19 20 18 18 16 14 14 14 13 13 12 13 13 12 12 12 12 12 12 12 12 12 13 13 14 15 16 17 17 16 16 15 14 13 13 12 12 11 11 11 11 11 11
17 19 19 17 17 16 13 12 12 12 12 12 12 12 13 13 12 11 11 11 11 11 11 11 12 13 14 15 15 16 16 15 15 14 13 13 12 12 11 11 11 11 11 11
16 17 18 17 16 15 14 11 11 11 11 11 11 12 13 12 11 11 11 10 10 10 10 10 11 11 12 13 14 14 15 15 14 14 13 13 12 12 12 11 11 11 11 11
16 17 17 14 14 14 14 11 11 11 10 10 10 9 10 11 11 11 11 10 10 10 10 10 10 10 10 11 12 12 13 14 14 14 13 13 13 12 12 11 11 11 11 11
16 16 14 11 12 14 14 12 10 10 10 9 9 9 10 10 10 10 10 10 10 10 10 10 9 9 9 10 10 10 11 12 13 13 13 13 13 12 12 11 11 11 11 11
14 15 13 10 11 11 10 11 10 10 9 9 9 9 10 10 10 10 10 10 10 10 10 10 9 9 9 9 9 9 10 11 11 12 13 13 13 12 12 11 11 11 11 11
11 11 10 10 10 11 10 10 9 9 9 9 9 9 10 10 10 10 10 10 10 10 10 9 9 9 9 9 9 9 9 9 10 11 12 12 12 12 12 11 11 11 11 11
10 10 10 10 11 10 10 10 10 10 10 9 9 10 10 10 10 10 10 10 10 10 9 9 9 9 9 8 8 8 8 9 9 10 11 12 12 12 12 11 11 11 11 11
10 10 10 11 11 11 10 10 10 10 10 10 10 10 10 10 10 10 10 10 9 9 9 9 9 8 8 8 8 8 8 8 9 10 10 11 12 12 12 12 12 12 11 11
8 9 9 10 11 11 10 10 10 10 10 10 10 10 10 9 9 9 9 9 9 8 8 8 8 8 8 8 8 7 8 8 8 9 10 11 11 12 12 12 12 12 12 12
10 11 10 10 11 11 10 10 10 10 10 10 9 9 9 9 9 8 8 8 8 7 7 7 7 7 7 7 7 7 7 8 8 8 9 10 11 11 11 11 11 11 11 11
11 10 10 10 10 10 10 10 10 9 9 9 9 9 8 8 8 7 7 7 7 6 6 6 6 6 7 7 7 7 7 7 8 8 9 10 11 11 11 11 11 10 10 10
11 10 10 10 10 10 10 9 9 9 9 9 8 8 8 7 7 7 6 6 6 6 5 5 6 6 6 6 6 7 7 7 7 7 8 10 10 11 11 11 11 11 10 10
10 10 10 10 10 9 9 9 9 9 9 8 8 8 7 7 6 6 6 5 5 5 5 5 5 6 6 6 6 7 7 7 7 7 8 9 10 10 11 11 11 11 11 11
10 10 10 9 9 9 9 9 9 9 8 8 8 7 7 6 6 5 5 5 5 4 4 4 5 5 5 6 6 6 7 7 7 7 8 9 10 10 11 11 11 11 11 11
9 9 9 9 9 9 9 9 9 8 8 8 7 7 6 6 5 5 5 4 4 4 4 5 5 5 5 6 6 6 6 7 7 7 8 9 10 10 11 11 11 11 11 11
9 9 9 9 9 9 9 8 8 8 7 7 7 6 6 5 5 4 4 4 4 4 5 5 5 5 5 6 6 6 6 7 7 7 8 9 10 10 11 11 11 11 11 11
9 9 9 9 9 9 8 8 8 7 7 6 6 5 5 5 4 4 4 4 4 4 4 4 5 5 5 6 6 6 6 6 7 7 8 9 10 10 11 11 11 11 11 11
9 9 9 9 8 8 8 7 7 6 6 6 5 5 4 4 4 4 4 4 5 5 4 5 5 5 6 6 6 6 6 7 7 7 8 9 10 10 11 11 11 11 11 11
9 9 8 8 8 7 7 7 6 6 5 5 5 4 4 4 4 4 4 4 4 5 5 5 5 6 6 6 6 6 7 7 7 8 9 9 10 11 11 11 11 11 12 12
9 8 8 7 7 7 6 6 5 5 4 4 4 4 4 4 4 4 4 5 5 5 5 5 6 6 6 6 6 6 7 7 7 8 9 10 10 11 11 12 12 12 12 12
8 7 7 7 6 6 5 5 4 4 4 4 4 4 4 4 4 4 4 5 5 5 5 6 6 6 6 6 6 6 7 7 8 8 9 10 11 11 12 12 12 12 12 12
7 7 6 6 5 5 4 4 4 3 3 3 4 4 4 4 4 5 5 5 5 6 6 6 6 6 6 6 7 7 7 7 8 9 10 10 11 11 12 12 12 13 13 13
7 6 6 5 4 4 3 3 3 3 3 3 3 4 4 4 5 5 5 6 6 6 6 6 7 7 7 7 7 7 7 7 8 9 10 11 11 12 12 12 13 13 13 13
6 5 5 4 4 3 3 2 2 3 3 3 3 4 4 5 5 5 6 6 6 6 6 7 7 7 7 7 7 7 7 8 9 9 10 11 11 12 12 12 12 13 13 13
Wind_Speed
7 8 7 9 12 13 8 6 5 6 6 7 9 9 10 12 14 17 18 18 17 16 13 10 8 6 6 7 7 8 8 8 7 6 5 4 4 3 2 1 1 1 3 5
4 7 8 7 10 6 8 7 9 9 7 7 8 8 10 12 15 16 16 17 17 16 16 15 13 10 8 7 7 8 9 9 8 7 7 6 5 4 3 1 0 2 3 4
4 7 6 5 7 7 8 10 6 6 4 8 10 12 8 9 13 14 15 16 17 16 15 15 15 13 11 10 7 8 10 10 9 9 8 7 7 6 5 3 2 2 3 4
2 3 1 2 7 11 11 11 10 6 6 8 10 10 4 7 10 13 14 14 14 14 15 15 15 16 14 11 7 7 9 9 10 10 9 8 8 7 6 4 4 4 5 5
4 3 4 4 4 4 1 4 7 6 8 10 11 8 4 5 8 9 10 10 10 10 11 12 14 16 16 13 10 7 7 9 10 11 11 10 10 9 7 6 5 5 6 7
4 4 5 2 10 13 2 3 4 8 9 11 11 9 7 11 13 13 12 11 10 11 10 11 13 13 14 13 12 10 10 10 9 11 12 12 12 10 7 6 7 7 7 7
2 4 1 6 12 10 2 5 8 8 9 10 7 8 12 15 15 14 14 13 12 11 10 10 11 11 12 12 12 13 13 11 9 10 12 13 12 10 9 9 9 8 8 7
3 3 2 7 6 4 3 6 8 10 11 12 13 16 16 16 15 15 15 14 12 11 11 10 10 9 11 12 12 12 12 12 10 9 11 12 12 11 11 11 11 9 8 7
2 0 3 2 2 4 5 8 9 10 13 15 17 18 19 18 17 16 15 14 12 12 12 11 10 9 11 12 12 11 12 12 11 10 10 11 13 14 12 12 11 10 9 8
3 1 3 5 5 5 7 10 12 15 17 17 19 20 20 18 16 15 14 14 12 12 12 12 11 11 11 12 11 10 11 11 10 9 9 10 12 12 13 13 12 11 10 10
2 3 7 6 7 9 11 14 16 18 18 18 19 20 19 17 16 15 14 12 11 11 12 13 12 12 12 10 10 11 10 10 10 9 9 10 12 13 15 14 16 14 12 12
3 5 5 10 11 13 15 17 19 19 19 18 17 18 18 16 14 13 13 12 12 12 12 14 13 12 11 10 10 10 9 9 8 8 7 9 10 10 13 13 18 19 17 15
6 8 9 12 15 16 16 18 19 17 16 16 13 13 13 13 12 12 13 13 14 14 14 14 13 13 12 10 10 10 9 9 7 7 7 8 10 11 10 7 13 17 19 19
9 9 10 12 14 16 16 16 14 14 13 13 12 13 13 13 13 14 14 14 14 15 15 14 14 13 12 11 10 11 9 9 8 7 8 7 9 11 12 12 11 8 10 17
10 9 11 13 12 12 12 13 14 14 13 13 12 13 15 16 16 16 16 15 15 15 16 15 14 14 12 11 11 11 9 6 6 6 7 7 9 10 11 13 12 9 6 6
10 11 11 12 13 14 14 14 15 14 15 15 14 15 15 16 17 18 17 16 16 17 17 16 16 15 13 12 11 9 8 11 9 7 7 7 9 10 11 12 11 11 11 9
10 11 11 13 14 15 15 14 15 15 15 16 16 16 16 18 18 18 18 16 16 17 17 17 17 15 13 12 10 8 7 8 10 8 7 7 9 11 12 12 12 12 11 13
11 11 12 14 16 17 18 16 16 17 16 17 17 17 17 18 19 20 20 18 17 17 17 16 15 14 12 11 9 7 6 6 6 6 6 6 9 10 12 13 13 13 10 11
13 13 14 15 16 16 16 17 17 16 16 16 16 17 17 19 19 20 20 19 19 18 17 14 16 15 12 12 11 7 7 7 7 6 5 7 9 10 11 12 12 12 12 12
13 14 16 16 16 16 16 17 16 16 15 16 17 17 19 20 20 21 19 18 15 14 14 15 14 12 11 10 11 6 7 7 7 6 5 6 8 10 11 12 13 13 13 12
15 16 17 17 16 16 16 16 15 16 16 16 17 19 21 22 21 19 18 17 15 14 13 15 12 10 8 8 9 6 6 7 6 6 5 6 8 11 12 12 13 13 13 12
14 14 16 16 16 16 15 14 14 16 18 17 19 21 22 22 21 19 17 15 15 16 12 10 9 10 9 8 5 6 6 6 6 5 4 5 8 10 12 13 12 12 12 12
13 13 14 15 15 16 16 14 15 15 18 20 22 22 22 20 17 17 17 13 12 14 12 9 10 12 11 6 5 5 6 6 5 4 4 5 7 9 11 13 12 12 12 12
12 12 13 14 14 13 15 17 16 17 19 20 20 22 21 19 16 14 14 16 16 16 11 10 12 12 9 4 4 4 5 4 3 3 3 5 6 7 9 10 11 11 12 13
11 12 12 14 14 13 14 17 18 19 19 18 21 22 19 15 17 17 15 14 15 13 8 9 11 9 6 4 4 4 4 3 2 1 2 4 5 6 7 8 10 10 11 11
11 11 11 12 12 12 13 15 16 17 18 19 19 19 18 16 16 14 12 11 12 10 6 5 5 5 4 4 4 4 3 2 2 1 2 3 4 5 6 7 10 9 9 10
11 10 10 11 11 12 14 15 17 18 18 19 21 20 19 17 15 14 12 9 7 6 4 4 3 3 3 4 3 3 2 2 1 1 2 3 3 4 5 7 7 7 7 8
Wind_Direction
227 248 267 287 298 299 297 260 182 130 93 13 357 11 22 24 22 20 13 8 4 357 347 332 319 301 277 252 228 204 190 192 201 202 196 194 197 215 245 289 324 9 50 59
288 277 289 308 332 358 32 36 91 98 63 350 347 16 25 25 20 14 5 358 354 352 349 343 329 314 295 272 245 214 201 202 198 191 189 192 195 197 204 225 312 85 78 71
270 296 342 9 4 74 67 35 61 65 17 346 356 358 7 16 15 4 353 349 346 344 341 335 330 320 307 281 263 225 212 204 194 189 191 194 192 188 192 192 168 134 121 108
216 352 299 147 79 103 97 63 52 51 9 354 338 315 312 29 8 346 339 337 335 334 333 332 330 329 321 310 281 245 224 210 198 192 194 191 186 188 189 177 172 160 148 135
155 206 238 139 50 354 249 83 26 11 348 337 325 309 263 3 345 322 316 313 313 315 316 322 327 331 329 323 303 272 247 227 209 197 192 189 191 190 185 174 172 168 157 146
162 204 239 301 335 323 123 123 0 349 334 331 341 338 308 323 323 315 312 308 306 309 313 321 323 328 331 328 324 309 287 260 229 203 193 193 194 187 178 173 173 167 162 160
250 247 94 331 322 336 15 304 313 317 314 316 310 278 286 299 302 298 298 296 296 299 303 305 310 319 323 324 322 313 313 297 261 219 200 194 190 181 174 171 166 168 165 166
355 318 324 344 11 43 269 279 293 303 303 299 291 288 290 292 291 291 292 289 287 286 288 290 295 303 309 310 309 310 312 307 286 246 212 197 185 182 176 172 170 170 167 164
85 151 217 271 216 236 259 284 289 288 287 287 287 287 288 287 286 286 285 285 282 280 285 286 285 286 293 298 300 303 306 303 292 270 228 194 184 183 179 177 177 178 176 175
97 111 270 274 265 267 273 274 278 279 281 281 281 283 286 287 286 284 282 282 281 280 282 285 284 281 277 287 292 292 293 297 296 274 238 203 188 183 183 184 183 182 182 181
71 317 315 300 283 279 285 286 286 286 284 283 284 286 288 290 289 288 288 287 283 279 280 283 283 280 277 280 288 288 288 291 294 277 243 209 193 189 188 191 188 185 187 182
277 265 262 276 280 286 292 293 294 295 295 292 289 290 293 295 295 294 294 293 290 284 281 283 282 280 280 276 278 281 279 283 287 287 252 213 194 189 194 187 184 183 181 178
238 253 255 270 281 286 289 291 295 297 299 302 301 299 301 299 298 296 295 295 293 290 287 285 282 279 277 273 273 272 268 272 282 289 264 218 192 183 179 179 180 181 180 179
263 275 283 282 286 291 294 295 298 301 302 302 303 304 303 300 299 298 296 294 293 294 292 289 284 280 278 272 270 268 264 269 272 282 270 224 197 186 180 177 176 180 190 188
290 286 281 288 294 298 299 303 307 308 305 302 298 299 300 300 299 296 294 294 295 294 293 290 286 284 282 273 268 266 261 264 261 274 273 230 197 183 178 177 178 169 150 172
296 299 298 300 303 304 305 306 305 302 300 298 298 298 298 297 297 297 297 296 297 297 295 291 286 282 281 275 269 264 256 261 265 267 274 231 191 181 177 175 172 171 174 166
311 308 306 307 307 305 303 300 299 298 298 299 300 298 299 301 301 300 298 295 292 292 290 287 284 281 279 272 265 261 254 260 267 266 263 228 191 182 177 174 174 175 177 173
296 293 295 299 304 306 306 303 302 302 301 301 302 303 305 306 305 303 302 299 296 292 289 284 281 280 276 268 261 257 255 255 251 255 255 221 193 183 175 174 174 172 166 167
295 293 295 298 299 300 302 303 305 304 303 305 306 306 306 305 305 303 303 300 298 296 293 288 283 282 277 267 266 251 247 254 256 257 246 213 193 182 175 174 173 171 167 166
296 298 301 303 304 304 305 308 309 309 309 307 307 308 309 309 308 306 303 298 291 285 286 287 287 281 272 263 261 246 241 248 253 254 240 211 190 180 176 175 172 171 169 172
304 307 310 312 311 310 311 312 313 313 311 310 310 310 310 309 308 307 304 301 295 289 287 284 283 277 267 254 251 240 241 245 247 243 231 205 183 176 175 173 172 173 174 176
309 312 314 316 316 317 317 316 314 314 315 314 313 313 313 312 310 308 299 293 291 289 290 285 278 272 266 255 240 240 245 245 246 239 223 194 178 173 173 172 173 175 176 177
312 313 315 317 318 317 318 319 318 318 318 317 316 314 313 310 309 307 307 302 296 291 289 281 273 272 269 254 235 239 248 245 240 237 214 184 176 172 170 171 172 173 175 177
316 318 318 317 320 321 322 323 323 321 317 315 313 313 312 312 310 304 300 298 295 290 288 277 270 267 256 237 228 235 243 240 235 250 200 169 162 162 163 166 168 171 175 176
318 319 320 324 328 326 323 324 324 322 320 319 316 315 314 311 310 309 307 305 301 295 288 275 269 257 238 223 223 232 240 228 225 240 157 150 150 152 158 162 163 167 172 179
320 322 323 322 323 323 325 326 325 323 322 321 320 319 319 318 314 312 311 308 304 300 292 282 270 245 219 215 224 232 222 205 216 165 126 131 138 145 151 159 162 165 171 178
324 326 327 329 328 327 326 326 323 322 321 320 321 321 321 322 323 324 321 318 314 308 296 283 267 232 209 207 217 221 205 188 170 126 139 140 142 144 148 152 160 163 168 173
Height
1515 1510 1507 1506 1503 1499 1501 1504 1513 1519 1522 1521 1517 1513 1509 1505 1501 1497 1495 1493 1491 1488 1484 1481 1478 1475 1472 1469 1466 1463 1461 1459 1458 1457 1455 1454 1452 1451 1449 1448 1447 1445 1443 1442
1512 1505 1503 1505 1503 1501 1506 1507 1511 1517 1523 1520 1517 1513 1509 1505 1502 1500 1497 1494 1491 1487 1483 1480 1476 1471 1467 1464 1461 1459 1457 1455 1454 1453 1452 1451 1451 1450 1449 1448 1448 1447 1446 1445
1521 1509 1508 1517 1513 1514 1519 1519 1518 1524 1527 1521 1516 1513 1510 1506 1503 1501 1498 1494 1490 1486 1482 1477 1473 1468 1463 1458 1455 1452 1451 1450 1449 1449 1448 1448 1448 1448 1448 1448 1448 1448 1448 1447
1521 1517 1522 1522 1514 1516 1522 1526 1524 1524 1524 1521 1518 1513 1509 1505 1503 1500 1496 1492 1488 1483 1478 1473 1468 1463 1457 1453 1449 1446 1445 1444 1444 1444 1444 1444 1445 1445 1446 1447 1448 1449 1449 1449
1523 1523 1516 1516 1516 1517 1520 1527 1527 1525 1522 1519 1514 1508 1505 1503 1501 1498 1494 1490 1485 1480 1475 1469 1464 1458 1452 1448 1444 1441 1439 1438 1438 1438 1438 1439 1440 1442 1443 1444 1446 1448 1449 1450
1518 1522 1526 1523 1519 1515 1516 1526 1526 1523 1520 1516 1510 1508 1502 1499 1496 1492 1488 1484 1479 1475 1470 1464 1459 1453 1448 1443 1439 1436 1434 1432 1431 1431 1432 1433 1435 1437 1439 1441 1444 1446 1448 1450
1519 1521 1524 1529 1521 1514 1522 1526 1524 1520 1517 1514 1511 1508 1501 1496 1491 1487 1483 1479 1474 1469 1464 1459 1454 1449 1443 1438 1434 1430 1427 1425 1424 1424 1425 1427 1429 1432 1434 1437 1441 1444 1446 1448
1525 1525 1530 1530 1525 1528 1530 1524 1521 1518 1515 1511 1507 1501 1495 1490 1485 1481 1476 1472 1467 1462 1457 1453 1449 1444 1438 1433 1428 1423 1420 1417 1416 1416 1418 1420 1423 1425 1429 1432 1436 1440 1443 1445
1531 1534 1533 1530 1529 1528 1526 1522 1519 1515 1510 1506 1500 1494 1488 1483 1478 1473 1469 1464 1459 1454 1449 1445 1442 1437 1432 1426 1421 1416 1413 1409 1407 1407 1409 1412 1415 1418 1422 1426 1430 1434 1438 1441
1532 1533 1531 1529 1527 1525 1523 1519 1514 1510 1504 1499 1493 1487 1481 1475 1470 1465 1460 1456 1451 1446 1441 1437 1433 1430 1425 1419 1415 1410 1405 1402 1399 1398 1400 1403 1406 1410 1414 1418 1423 1428 1432 1436
1534 1533 1530 1527 1525 1522 1518 1513 1508 1503 1498 1493 1487 1480 1474 1468 1462 1457 1452 1448 1443 1438 1433 1428 1425 1421 1416 1412 1407 1403 1398 1395 1391 1389 1391 1394 1398 1402 1406 1410 1415 1420 1425 1430
1537 1533 1531 1525 1520 1517 1512 1507 1502 1497 1491 1486 1481 1474 1468 1462 1456 1451 1445 1440 1435 1430 1425 1419 1415 1411 1407 1404 1400 1395 1390 1387 1384 1381 1382 1385 1390 1395 1399 1405 1410 1416 1422 1427
1532 1529 1526 1521 1517 1513 1508 1502 1497 1492 1487 1480 1475 1469 1462 1456 1450 1444 1438 1432 1426 1421 1415 1410 1405 1401 1398 1395 1391 1387 1382 1379 1376 1374 1374 1378 1382 1387 1392 1399 1405 1411 1417 1423
1529 1526 1522 1517 1513 1508 1503 1498 1492 1486 1481 1475 1468 1462 1455 1448 1441 1435 1429 1423 1417 1411 1405 1400 1395 1391 1388 1385 1381 1378 1375 1372 1369 1368 1367 1370 1375 1380 1385 1391 1397 1404 1412 1418
1526 1523 1519 1513 1508 1503 1498 1492 1485 1478 1472 1466 1460 1453 1446 1439 1432 1425 1419 1413 1406 1400 1394 1389 1384 1380 1378 1375 1372 1369 1367 1365 1363 1362 1361 1363 1368 1374 1379 1385 1392 1398 1406 1413
1522 1518 1514 1508 1503 1497 1491 1485 1478 1471 1464 1457 1450 1444 1437 1430 1422 1415 1408 1402 1395 1388 1383 1378 1373 1370 1368 1365 1363 1361 1359 1358 1357 1356 1355 1357 1362 1368 1373 1379 1386 1393 1400 1406
1518 1512 1507 1502 1496 1490 1484 1478 1471 1464 1456 1449 1441 1434 1427 1419 1411 1403 1397 1391 1385 1378 1373 1367 1363 1360 1358 1356 1355 1353 1352 1350 1350 1350 1349 1352 1357 1362 1368 1374 1380 1387 1394 1401
1516 1510 1505 1499 1491 1484 1477 1470 1463 1455 1448 1440 1433 1425 1417 1409 1401 1393 1385 1379 1373 1366 1362 1357 1354 1351 1349 1348 1347 1346 1345 1344 1344 1343 1344 1347 1352 1357 1363 1370 1376 1383 1390 1397
1510 1505 1499 1492 1486 1478 1470 1463 1455 1448 1440 1432 1425 1416 1409 1400 1392 1383 1376 1368 1362 1355 1351 1347 1345 1342 1340 1340 1339 1339 1338 1338 1338 1338 1339 1343 1348 1353 1359 1366 1372 1379 1385 1392
1504 1498 1492 1485 1478 1471 1464 1456 1448 1440 1433 1425 1416 1408 1399 1391 1382 1374 1366 1359 1353 1348 1343 1339 1336 1334 1333 1333 1333 1333 1333 1333 1332 1333 1335 1339 1344 1350 1356 1363 1369 1375 1381 1387
1497 1491 1485 1478 1471 1464 1457 1449 1441 1433 1425 1418 1409 1400 1390 1381 1373 1365 1356 1349 1343 1339 1335 1332 1329 1328 1327 1327 1328 1328 1328 1327 1327 1329 1331 1335 1340 1347 1353 1360 1366 1372 1378 1384
1492 1486 1479 1472 1465 1457 1450 1443 1436 1427 1419 1410 1401 1392 1382 1372 1363 1356 1349 1342 1335 1331 1327 1325 1323 1322 1322 1322 1322 1323 1323 1323 1323 1325 1328 1332 1338 1344 1351 1357 1363 1369 1375 1381
1488 1481 1474 1467 1460 1452 1444 1437 1429 1421 1412 1403 1393 1383 1374 1365 1356 1347 1339 1333 1328 1323 1321 1319 1318 1318 1318 1318 1318 1318 1318 1319 1319 1322 1325 1331 1337 1343 1349 1355 1361 1367 1373 1378
1483 1477 1470 1463 1455 1447 1438 1430 1423 1414 1405 1396 1386 1376 1367 1356 1347 1340 1333 1326 1321 1318 1315 1314 1313 1314 1314 1314 1315 1315 1315 1316 1317 1320 1324 1330 1336 1342 1348 1354 1359 1365 1370 1376
1479 1472 1465 1458 1450 1443 1434 1425 1416 1406 1398 1388 1379 1369 1360 1351 1342 1333 1326 1321 1316 1314 1312 1311 1311 1311 1311 1312 1313 1313 1313 1314 1316 1319 1324 1330 1335 1341 1347 1353 1358 1363 1368 1373
1475 1468 1462 1455 1448 1440 1431 1421 1412 1402 1393 1383 1372 1363 1353 1344 1336 1329 1323 1318 1314 1312 1310 1309 1309 1310 1310 1311 1312 1312 1313 1314 1317 1321 1325 1330 1336 1341 1347 1352 1357 1362 1366 1371
1471 1464 1457 1449 1442 1434 1426 1417 1408 1399 1389 1380 1369 1358 1349 1340 1333 1326 1321 1317 1314 1312 1311 1310 1310 1310 1311 1311 1312 1312 1313 1315 1319 1323 1327 1332 1337 1342 1347 1351 1356 1361 1365 1369